Temp
7 7 8 8 8 8 8 8 8 8 8 8 8 8 8 8 8 8 8 8 8 8 8 8 8 8 8 8 8 8 8 9 10 8 10 19 22 21 20 20 20 20 19 19 19 19 19 19 19 19 20 20 19 20 20 20 21 22 22 21 21 20 21 22 23 24 24 24 25 25 24 24 26 25 23 23 22 21 21 20 19 19 19 19 19 19 19 18
7 7 7 7 7 8 8 8 8 8 8 8 8 8 8 8 8 8 8 8 8 8 8 8 8 8 8 8 8 8 8 9 9 9 15 22 22 21 21 20 20 20 20 19 19 19 19 20 19 19 20 20 19 20 21 20 21 22 20 21 21 21 22 22 23 24 24 24 25 24 24 24 25 25 24 24 23 22 22 20 18 19 19 19 18 18 18 18
7 7 7 7 7 7 8 8 8 8 8 8 8 8 8 8 8 8 8 8 8 8 8 8 8 8 8 8 7 8 8 8 12 17 21 23 22 22 21 20 20 20 20 20 20 20 20 20 19 19 21 20 19 20 21 21 21 21 21 21 22 21 22 22 23 24 24 24 24 25 24 24 25 25 25 24 22 22 23 21 20 20 19 19 18 18 18 18
7 7 7 7 7 7 7 7 8 8 8 8 8 8 8 8 8 8 8 8 8 8 8 8 8 8 8 7 8 8 8 11 18 22 22 22 23 22 21 20 20 19 19 20 20 20 20 20 19 20 21 20 20 20 21 21 21 21 21 22 22 21 22 23 24 24 24 23 23 24 24 25 26 24 24 24 23 23 23 22 23 22 19 19 19 18 18 18
7 7 7 7 7 7 7 7 8 8 8 8 8 8 8 8 8 8 8 8 8 8 8 8 8 8 8 8 9 8 10 17 22 22 22 23 23 22 21 20 20 19 19 19 20 20 20 19 20 20 20 21 20 21 21 21 21 22 21 22 22 21 22 24 23 24 24 23 24 24 24 25 26 25 25 25 26 26 25 23 22 20 18 19 19 18 18 18
7 7 7 7 7 7 7 7 8 8 7 8 8 8 8 8 8 8 8 8 8 8 8 8 8 8 8 9 9 9 13 20 21 21 23 22 22 22 21 20 20 19 19 19 20 19 20 19 20 21 20 21 20 21 21 21 21 22 22 22 23 22 22 24 24 24 24 23 24 24 24 25 26 26 24 25 26 25 23 22 21 19 18 19 18 18 18 18
7 7 7 7 7 7 7 7 7 7 7 8 8 8 8 8 8 8 8 8 8 8 8 8 8 8 8 9 10 10 13 19 21 22 23 22 23 22 21 20 20 19 19 19 19 19 20 20 20 20 20 21 20 21 22 21 21 22 22 22 23 22 22 24 23 23 23 23 24 24 24 24 26 25 23 24 24 21 20 20 20 19 18 19 18 18 18 18
7 7 7 7 7 7 7 7 7 7 7 8 8 8 8 8 8 8 8 8 7 8 8 8 7 7 8 9 11 13 14 19 22 22 22 22 22 22 21 20 19 19 19 19 19 19 19 20 20 20 21 21 20 21 21 21 21 21 22 22 23 22 23 24 23 23 22 22 22 22 23 24 24 24 24 24 21 19 19 19 18 18 18 18 18 18 18 18
7 7 7 7 7 7 7 7 7 7 7 8 8 7 7 8 8 8 8 7 8 8 8 8 7 7 8 9 11 16 19 21 22 22 22 22 22 22 21 20 19 19 18 19 19 19 19 20 20 20 21 21 20 21 21 22 22 22 22 22 23 23 24 23 23 24 23 22 22 22 24 25 23 23 25 23 20 19 19 18 18 18 18 18 18 18 18 18
7 7 7 7 7 7 7 7 7 7 7 7 7 7 7 7 7 8 7 7 8 8 8 7 7 8 8 9 12 18 21 21 21 22 22 22 22 21 21 20 20 19 18 18 18 19 19 20 20 20 21 20 20 21 21 22 22 22 22 22 23 23 23 22 23 24 22 22 23 23 25 24 22 23 25 22 19 19 18 18 18 18 18 18 18 18 18 17
8 7 7 7 7 7 6 7 7 7 7 7 7 7 7 7 7 7 7 7 7 7 8 7 7 8 8 9 13 18 21 21 21 21 21 21 21 21 21 21 20 19 18 17 18 19 20 19 19 20 21 20 21 21 21 22 22 22 22 23 23 22 22 23 24 23 22 23 23 23 25 24 22 24 26 22 19 19 18 18 18 18 18 18 18 17 17 16
9 8 8 7 7 6 6 7 7 7 7 7 7 7 7 8 8 7 7 7 7 7 8 7 8 8 8 9 13 18 21 21 21 21 20 20 20 21 21 21 20 20 19 18 18 19 20 20 20 21 21 20 21 21 22 22 22 23 22 23 23 23 24 24 24 23 22 24 24 23 24 24 23 25 24 20 19 19 18 18 18 18 18 17 17 17 17 16
10 10 9 9 8 7 7 7 7 7 7 7 8 8 8 8 8 7 7 7 8 8 7 8 8 7 9 13 16 19 21 20 20 20 19 19 20 20 20 20 20 20 20 19 19 19 20 20 20 21 21 20 21 21 22 22 22 22 21 22 23 23 24 24 23 22 23 24 24 23 23 23 25 25 22 19 19 19 18 18 18 18 18 17 17 17 17 16
10 10 10 10 9 8 8 8 8 8 8 9 9 9 9 8 7 7 7 7 8 8 8 8 8 8 9 15 19 20 20 20 20 20 20 20 20 19 19 19 19 19 20 20 20 20 20 20 20 20 20 20 21 21 22 22 21 22 21 21 21 21 23 24 22 22 24 24 24 24 22 23 25 24 21 19 19 19 19 19 18 18 17 17 17 17 17 17
11 11 11 11 11 10 9 9 9 10 10 10 10 10 10 9 8 7 7 8 7 8 8 8 8 8 10 14 18 19 19 19 20 21 21 20 20 20 19 19 19 19 19 19 20 20 20 20 20 20 20 20 21 21 22 22 21 21 21 21 20 20 22 24 22 22 25 24 23 24 22 22 25 24 20 19 19 19 19 19 18 18 17 17 17 17 17 17
11 11 11 12 11 11 10 10 10 10 10 10 10 10 10 10 9 8 7 7 8 8 8 8 8 8 12 17 19 19 19 19 20 22 21 20 21 21 20 19 18 19 19 19 20 20 20 20 20 20 21 21 21 22 21 21 21 20 20 21 21 21 21 23 23 22 23 24 23 24 23 23 24 23 20 19 19 19 19 19 18 18 17 17 17 17 17 17
11 11 12 12 12 12 11 11 11 11 11 11 10 11 10 10 9 8 8 7 8 8 8 9 8 8 14 19 19 20 20 20 21 22 21 21 21 21 20 19 19 19 19 19 20 20 20 20 20 20 20 20 20 21 21 20 21 20 20 21 20 20 21 22 23 23 22 23 23 23 23 24 24 21 19 19 19 19 19 19 18 18 17 16 16 17 17 17
11 11 12 12 12 12 12 12 11 11 11 11 11 12 11 10 9 8 8 8 8 8 8 9 9 12 17 19 19 20 20 21 21 21 21 20 20 21 21 20 20 20 20 20 20 20 20 20 19 20 20 19 20 21 21 20 21 21 20 21 20 20 20 21 23 23 22 23 23 23 23 24 23 19 19 20 19 19 19 19 19 18 17 16 16 17 17 17
11 11 12 12 12 12 12 12 12 12 11 11 12 11 11 10 9 8 8 8 10 13 14 12 12 17 19 19 19 20 20 21 21 21 21 20 20 20 21 21 20 21 21 21 20 20 20 20 20 20 21 20 21 21 21 21 21 21 21 20 20 20 21 21 22 22 21 22 22 22 22 24 23 19 19 20 19 19 19 19 19 18 17 16 16 17 17 17
11 11 11 12 12 12 12 12 12 11 11 12 11 10 12 13 13 12 10 9 11 15 18 16 15 18 19 19 20 20 21 21 21 21 21 21 21 20 20 21 21 21 21 21 21 20 20 21 20 20 21 21 22 20 20 20 20 20 20 20 20 20 21 21 22 22 21 21 22 21 22 24 22 19 19 20 19 19 19 19 19 18 17 17 17 17 17 17
11 11 11 12 12 12 12 12 11 11 11 11 10 11 15 17 16 16 14 13 13 13 15 16 16 17 18 19 19 20 20 20 21 21 21 21 21 20 20 20 20 20 19 19 20 19 20 20 20 21 21 21 20 19 18 19 19 20 20 20 20 20 21 22 22 22 20 21 21 19 22 23 21 19 19 19 19 19 19 19 19 18 18 17 17 17 17 17
11 11 11 12 12 13 13 12 11 11 10 10 9 10 15 17 17 17 16 16 15 14 14 15 15 16 17 18 18 19 19 19 21 21 20 21 21 21 20 20 20 20 19 19 20 20 20 20 21 21 18 18 18 18 18 19 20 20 19 20 21 20 21 21 22 21 19 22 21 19 21 21 19 18 18 19 19 19 19 18 19 19 18 18 17 17 17 17
11 11 11 12 12 13 12 12 12 11 10 10 9 9 14 17 17 17 16 16 16 16 16 15 15 15 16 17 18 19 19 18 20 21 20 21 21 20 20 20 20 20 19 19 20 20 20 20 21 19 17 18 19 18 18 19 19 19 19 20 21 20 21 21 22 21 19 20 21 21 21 21 19 19 19 19 19 19 19 18 18 18 18 18 18 18 17 17
11 11 11 12 12 13 13 12 12 11 11 10 10 13 16 17 16 16 16 16 17 17 17 16 16 16 17 18 19 19 19 19 20 21 21 21 20 20 20 20 20 20 19 20 20 20 20 20 19 18 18 20 20 19 18 19 20 19 19 21 22 22 22 22 21 21 20 19 20 22 22 21 21 20 20 20 20 20 19 18 18 18 18 18 18 18 17 17
10 10 11 11 12 13 13 12 11 11 11 10 13 16 16 16 16 15 16 16 17 17 18 17 17 18 19 19 19 19 19 20 21 21 21 21 21 20 21 20 20 20 19 19 19 20 21 20 18 19 19 19 20 20 19 20 20 20 20 21 22 23 22 22 21 21 22 21 20 20 21 21 21 21 21 20 20 20 18 18 18 17 17 17 17 17 17 17
10 10 10 11 11 13 14 12 11 11 12 13 16 17 16 17 16 16 16 16 16 18 19 18 18 19 20 19 19 20 20 21 21 21 21 22 22 21 21 20 20 21 19 19 19 20 21 19 18 20 20 19 20 20 19 20 20 20 21 21 21 22 22 22 22 21 21 21 19 18 21 21 21 22 21 19 20 20 19 18 18 18 18 17 17 17 17 17
10 10 10 10 11 11 12 13 12 11 14 17 18 17 17 18 17 16 17 16 17 19 19 18 18 20 21 19 20 21 21 21 21 21 21 22 22 22 21 20 20 20 19 19 20 20 20 20 20 20 20 19 20 20 20 19 20 21 20 20 21 22 22 22 22 22 20 20 20 19 21 21 20 22 20 18 20 20 19 19 18 18 18 17 17 17 16 17
10 10 10 10 11 10 9 10 10 11 16 18 17 17 18 18 17 17 17 16 18 20 20 19 20 21 21 20 20 22 22 22 22 21 21 22 23 22 21 21 21 21 20 20 21 20 19 21 22 21 21 20 21 21 20 19 22 22 19 19 20 21 22 22 22 22 20 20 21 20 20 21 20 21 20 19 20 21 21 20 19 18 18 18 18 17 17 17
11 10 10 10 11 10 10 9 9 12 17 17 17 18 18 18 18 18 16 16 18 20 21 21 21 21 21 20 20 22 22 22 22 21 21 22 22 22 21 20 21 21 20 20 21 21 20 21 22 22 22 22 22 21 18 20 22 20 18 18 19 19 19 20 21 21 20 20 21 20 19 20 20 21 21 20 21 21 21 20 19 18 18 18 17 17 17 17
11 11 10 10 9 10 10 8 11 16 17 17 17 18 18 18 18 17 15 17 19 20 21 21 21 21 21 20 20 21 21 22 22 21 21 22 22 22 21 20 21 21 20 20 21 21 20 19 20 21 22 22 22 19 17 19 20 19 20 21 21 20 20 20 19 20 21 20 20 19 18 20 20 20 20 20 20 19 19 20 20 19 19 18 18 17 17 17
11 11 11 9 9 9 9 10 14 17 16 17 17 18 18 18 17 15 16 18 19 20 20 21 20 21 21 20 20 21 21 21 22 22 22 21 21 22 21 20 21 21 20 20 21 20 20 20 20 21 21 21 22 20 18 18 18 19 22 21 21 21 20 20 20 20 20 20 20 18 17 20 21 20 19 18 18 17 17 19 20 19 19 19 18 18 17 17
12 12 12 11 9 9 10 14 16 16 16 17 16 17 18 17 15 15 17 18 19 20 20 19 20 20 20 20 20 21 21 21 21 22 21 21 21 21 21 21 21 20 19 20 20 20 21 22 21 21 21 21 23 22 20 19 20 21 21 21 20 20 20 20 19 19 20 20 19 17 18 20 20 20 18 17 17 16 16 16 16 16 17 18 18 17 17 17
12 13 13 13 11 10 13 16 16 15 16 16 15 17 17 15 15 16 17 18 19 19 19 19 20 20 19 20 21 21 21 21 21 21 21 20 20 20 20 20 20 21 20 18 19 20 21 21 21 22 22 21 23 22 21 21 21 21 21 21 20 19 19 19 17 17 19 20 18 17 18 20 20 19 18 16 17 16 15 15 15 15 16 17 17 16 16 16
13 13 13 13 13 13 15 16 15 15 14 14 16 17 15 15 15 16 16 17 18 19 19 19 19 19 20 20 21 21 20 21 21 21 21 20 20 19 20 19 19 21 20 18 18 19 20 20 21 23 22 21 22 22 22 22 21 20 20 21 21 20 20 19 18 19 19 19 18 18 19 20 20 19 17 17 17 16 16 15 14 15 15 16 15 15 15 15
13 13 13 13 14 15 16 15 14 13 13 14 16 15 14 15 15 15 16 17 18 18 19 19 19 19 20 20 20 21 21 21 20 20 20 20 20 20 20 20 19 20 20 19 18 18 19 20 21 21 20 21 22 21 21 22 21 18 18 20 21 20 21 18 17 18 18 19 18 18 19 18 18 18 17 17 17 16 16 15 15 15 15 15 15 15 15 15
13 13 13 13 14 15 15 15 13 12 13 15 15 14 14 15 16 16 17 18 18 18 18 19 19 19 19 19 20 20 21 21 20 20 20 19 20 19 20 20 19 20 21 20 19 18 19 20 21 20 20 21 21 21 21 22 21 19 18 20 19 19 20 19 16 15 17 19 18 17 18 18 18 18 18 18 17 17 17 16 15 15 15 16 16 16 16 17
12 12 12 12 13 13 13 14 13 11 14 15 15 14 14 16 16 16 18 18 18 18 18 18 19 19 19 19 19 20 21 20 20 20 20 19 20 19 20 20 20 20 21 21 20 19 19 20 20 20 21 21 19 20 21 20 21 20 20 20 18 18 20 19 18 17 17 19 18 16 17 18 18 19 18 18 18 17 17 17 16 15 15 16 15 16 17 18
9 9 11 12 12 12 12 13 12 11 14 14 14 14 13 15 16 16 18 18 18 18 18 17 18 18 18 19 19 19 20 19 19 20 19 19 19 19 20 20 20 20 20 21 21 19 18 20 20 19 20 21 19 20 21 19 19 20 20 20 19 20 20 19 19 18 18 18 17 17 16 16 18 19 19 19 18 17 17 17 17 16 15 15 14 15 15 15
8 9 12 12 12 12 11 12 11 13 14 14 14 14 14 15 16 16 17 18 17 18 17 17 18 18 18 19 19 19 19 19 19 19 19 19 19 19 19 20 21 20 19 20 21 19 18 20 20 19 19 19 20 21 21 20 19 19 20 19 19 19 20 19 18 19 19 18 16 17 17 17 19 18 18 19 18 18 17 16 16 15 15 14 14 14 14 14
8 12 13 12 11 11 10 11 12 14 14 13 13 14 14 15 16 17 17 18 18 18 17 17 17 17 18 18 18 19 19 19 19 18 18 19 19 19 19 20 21 19 18 19 19 18 18 18 20 20 19 19 20 19 19 21 20 20 20 20 19 18 18 18 18 17 18 18 17 17 18 18 18 17 17 18 18 18 17 16 15 15 14 14 14 14 14 13
8 12 13 11 11 11 11 12 13 13 14 12 12 14 14 15 16 17 17 17 17 18 18 17 17 17 18 18 18 19 19 18 19 19 18 18 19 19 20 20 20 19 19 19 19 19 18 19 19 20 20 19 19 18 17 18 19 20 20 19 19 18 18 19 18 15 16 18 17 17 18 19 17 14 15 16 16 17 16 15 15 14 14 14 13 14 14 13
9 13 13 12 11 11 12 13 12 12 13 13 13 14 15 16 16 17 17 17 17 17 17 17 18 17 17 17 18 18 18 18 18 19 18 18 18 19 19 19 19 20 20 20 19 17 17 19 19 19 18 18 18 17 17 17 17 18 18 17 17 18 19 21 20 17 16 15 15 17 19 18 15 12 13 14 14 15 16 15 15 14 14 13 13 13 13 13
11 12 12 12 12 12 13 13 13 13 14 14 14 15 16 16 16 17 17 16 16 17 17 17 17 17 17 17 17 17 17 18 18 18 18 18 18 18 18 18 18 19 20 19 18 17 17 18 18 18 18 18 18 19 18 16 17 18 17 15 16 17 18 19 18 17 17 16 16 17 18 18 15 12 12 13 14 15 15 15 15 14 14 14 13 13 13 13
9 9 11 12 13 13 12 11 12 12 13 13 14 15 16 16 16 16 16 16 15 15 15 16 16 16 16 16 16 16 16 17 18 17 17 18 18 17 17 18 18 19 20 20 19 18 18 18 18 17 17 17 18 18 18 18 18 18 17 15 15 15 16 16 16 16 18 17 16 19 19 17 15 13 12 13 14 15 15 14 14 14 14 14 14 13 13 13
9 10 10 11 11 12 11 9 9 11 12 13 13 14 15 15 16 15 15 15 14 13 14 15 15 14 15 15 15 15 14 16 17 16 16 17 17 17 17 17 18 18 18 18 18 19 17 16 16 18 17 16 17 17 18 18 17 16 16 16 15 14 16 17 17 19 19 15 15 19 18 16 14 13 13 13 13 14 14 14 14 14 13 13 13 13 13 13
10 10 9 10 10 9 9 9 9 10 11 11 12 13 13 14 15 15 14 14 13 13 13 13 13 14 15 14 15 15 14 14 15 15 15 15 16 17 16 16 17 17 17 17 17 18 16 14 14 16 16 16 17 16 15 16 17 17 17 17 16 14 15 17 18 19 18 15 16 17 16 15 14 13 12 12 11 12 13 13 14 14 13 13 13 13 13 13
10 9 7 9 9 8 9 9 8 9 10 10 12 12 11 12 13 14 15 14 13 13 13 12 12 13 14 14 15 15 13 13 14 14 13 13 15 15 16 16 17 16 18 18 17 18 17 14 13 14 14 14 15 15 14 15 16 16 16 17 16 15 16 18 18 17 16 17 17 15 14 15 13 10 10 10 10 11 11 11 12 12 12 13 13 13 13 13
9 9 7 7 8 8 8 8 8 8 9 10 11 11 11 11 12 13 14 14 13 13 13 13 11 11 11 12 14 14 13 13 14 13 13 13 13 15 16 17 16 16 17 17 17 17 17 15 14 14 14 14 14 14 15 14 14 13 13 14 16 16 17 17 16 13 14 18 17 14 13 13 11 9 9 9 9 10 9 9 10 10 10 11 12 13 12 12
8 8 8 7 8 7 7 7 8 8 9 9 10 10 10 11 11 12 12 13 13 13 13 12 11 11 10 11 13 12 12 13 13 12 12 13 13 14 15 16 16 15 16 16 16 16 16 15 14 14 14 13 13 14 15 15 14 13 12 11 13 14 14 13 12 10 12 14 12 11 12 10 9 9 9 9 9 9 9 8 9 9 9 9 11 11 10 10
7 7 7 8 8 8 8 7 7 8 9 8 9 9 9 10 11 11 11 11 12 12 12 12 11 11 11 11 12 12 11 12 13 12 12 12 13 13 13 14 15 15 15 16 15 15 16 15 13 14 14 12 12 13 14 15 15 14 13 11 12 13 12 12 11 10 11 11 9 11 12 10 9 9 8 9 9 8 8 8 8 8 8 8 9 8 8 8
5 5 6 7 8 7 7 8 7 8 8 7 7 9 9 9 10 11 11 10 10 10 10 11 11 11 11 11 12 11 11 11 12 12 12 12 12 13 13 13 13 14 15 15 15 16 16 14 13 14 14 12 12 12 13 13 13 13 13 12 12 13 13 11 10 9 10 11 11 12 13 10 10 10 8 8 8 8 8 8 8 8 8 8 8 8 8 8
5 5 5 6 8 7 7 7 7 8 8 6 6 8 9 9 10 11 11 11 10 10 9 10 11 11 12 12 12 11 11 11 12 12 11 12 12 12 12 12 12 13 14 14 14 14 14 14 14 14 14 12 11 12 11 12 14 13 12 10 10 10 10 10 9 8 8 9 11 13 12 9 9 9 8 8 8 7 7 7 7 8 8 8 8 8 8 8
Height
784 783 782 782 781 780 779 778 778 777 777 776 776 775 774 774 773 772 772 771 770 769 768 767 766 765 763 762 761 759 757 755 752 753 750 742 738 741 741 742 744 745 746 747 749 750 751 752 752 753 754 755 758 758 757 757 758 760 768 774 775 779 777 770 768 765 763 761 757 756 756 757 756 754 752 751 754 757 758 759 759 757 754 753 753 753 756 761
783 782 782 781 779 779 778 777 777 776 776 775 775 774 774 773 772 772 771 770 769 769 768 767 766 764 763 762 761 759 756 754 752 750 744 738 738 740 740 742 743 744 746 747 748 749 751 752 752 753 754 757 759 758 758 758 758 762 772 775 773 775 770 764 762 760 760 760 758 756 757 757 755 754 752 755 762 759 759 762 762 762 759 756 756 756 757 760
782 781 781 780 778 777 777 776 776 775 775 774 773 773 773 772 772 771 770 770 769 768 768 766 766 764 763 762 760 758 756 755 750 744 738 736 737 738 740 741 743 744 746 747 748 749 750 751 751 753 755 758 760 759 760 759 760 763 769 772 770 769 766 763 761 757 757 758 759 757 756 755 751 750 751 756 763 761 760 761 761 763 762 759 758 757 758 761
781 780 779 779 777 776 776 775 775 774 774 773 772 772 772 771 771 770 770 769 768 768 767 766 765 764 763 762 760 759 757 755 745 738 737 737 737 737 739 741 743 744 746 747 748 749 750 750 751 753 755 759 761 760 761 760 761 764 766 767 765 765 766 761 759 756 755 758 759 757 757 754 748 749 752 755 761 762 759 755 753 756 759 758 759 759 760 762
781 779 778 777 776 775 775 774 774 773 772 772 771 771 770 770 770 770 769 769 768 767 767 766 765 764 763 762 760 759 758 754 743 736 737 737 737 738 739 741 743 744 746 747 748 749 750 751 752 754 756 760 762 761 761 760 759 763 763 761 760 763 764 757 757 757 755 757 757 757 757 753 748 749 752 753 756 756 751 748 747 749 752 753 755 758 761 765
780 779 777 776 775 774 773 773 773 772 771 770 770 770 770 769 769 769 768 768 767 767 766 765 764 764 763 761 760 759 757 751 740 736 737 737 737 738 739 741 743 744 746 747 748 749 750 751 753 756 758 760 763 761 761 759 759 763 762 759 758 759 760 755 755 756 755 756 756 755 755 752 751 752 753 752 751 749 746 745 746 748 751 751 754 758 763 768
780 778 776 775 774 773 773 772 772 771 770 770 770 769 768 768 768 768 767 767 767 766 766 765 764 763 762 761 760 760 759 749 737 737 737 737 738 738 740 741 743 744 746 747 748 750 751 752 754 757 759 760 763 761 759 759 759 763 763 758 756 758 758 754 754 755 756 756 753 753 753 752 753 754 754 752 750 749 746 745 746 749 753 756 759 762 764 767
779 778 776 774 773 772 772 771 770 769 769 769 769 768 768 767 767 767 767 766 766 766 765 764 764 763 762 761 760 760 758 745 736 737 737 737 738 738 739 741 743 744 745 747 748 750 751 753 754 756 759 760 761 760 758 760 761 762 762 758 756 756 755 753 754 754 755 754 752 754 754 751 751 753 753 752 751 750 748 747 749 752 756 760 762 763 765 767
779 777 775 774 772 771 770 770 769 768 768 768 768 767 767 766 766 766 766 765 765 765 765 764 764 763 762 762 762 757 747 738 735 736 736 736 737 738 739 740 743 744 745 747 748 750 751 752 753 754 757 759 760 759 757 760 762 759 758 757 756 755 752 752 753 751 752 752 751 754 752 748 749 752 752 751 751 750 749 751 753 755 758 761 763 764 766 768
779 777 775 774 772 770 769 768 768 767 767 767 766 766 766 766 765 765 765 765 765 764 764 764 763 763 763 762 762 754 739 735 736 735 736 736 737 738 739 740 742 743 745 747 748 749 750 750 751 751 753 757 759 759 758 759 759 755 756 756 754 754 752 752 751 749 751 750 749 751 750 748 750 752 751 750 749 749 751 754 756 757 760 762 764 766 768 770
778 776 775 773 771 770 768 767 766 766 766 765 765 765 765 765 764 764 764 764 764 764 764 764 763 763 763 762 762 752 737 735 736 735 736 736 737 738 738 740 741 743 745 747 748 748 748 748 749 750 754 757 757 759 757 755 754 753 755 755 753 754 752 751 749 748 750 748 746 748 748 750 752 751 749 748 749 750 753 757 759 760 762 763 765 768 769 770
778 776 774 773 771 769 768 766 765 765 764 764 764 764 764 764 763 763 763 763 764 764 763 764 764 763 763 763 759 746 735 736 736 735 737 736 738 738 738 740 740 742 744 746 747 746 748 748 748 751 755 756 758 759 755 752 753 752 754 756 753 752 749 746 746 747 748 746 743 747 752 754 753 750 747 749 751 752 756 759 761 762 763 765 766 768 769 768
777 776 774 772 771 769 767 766 765 764 763 763 763 763 763 762 762 762 762 763 763 763 763 763 763 763 764 758 746 737 735 736 736 736 737 737 738 738 739 741 741 742 743 744 746 746 748 749 749 752 753 755 757 756 752 751 752 752 755 757 756 757 752 746 747 748 747 744 740 747 760 759 751 748 748 750 751 754 759 761 762 764 764 766 767 768 768 768
777 775 774 772 770 769 767 765 764 763 763 762 762 762 761 761 761 761 762 762 762 763 763 763 763 763 764 752 736 734 735 734 735 735 735 736 738 738 739 740 741 743 743 744 746 747 748 749 750 752 752 754 753 751 752 754 755 756 758 761 766 766 756 745 747 749 745 743 740 745 760 758 748 747 749 750 750 753 759 761 762 764 765 767 767 767 768 768
777 775 773 772 770 768 767 765 764 763 762 761 761 760 760 760 760 760 761 762 762 763 762 764 763 763 763 748 734 734 734 733 733 732 734 736 736 737 738 739 741 742 743 745 747 747 748 749 751 753 753 751 751 754 757 757 758 761 763 766 772 770 760 748 746 748 745 742 742 746 759 759 749 746 748 750 751 753 758 761 763 764 766 767 767 768 769 769
777 775 773 772 770 768 767 765 763 762 761 761 760 759 759 759 759 760 760 761 762 762 763 764 762 764 761 744 734 734 733 733 732 731 733 734 735 737 737 739 741 742 744 745 747 747 748 749 751 753 752 751 754 756 760 764 763 766 767 766 769 768 764 755 745 745 745 744 744 747 756 757 749 747 748 750 752 755 759 761 764 765 767 768 768 770 770 770
776 774 773 771 769 768 766 764 763 761 761 760 759 759 759 759 759 759 760 761 761 761 762 762 763 764 753 737 734 734 732 732 731 731 732 732 735 736 737 740 741 742 743 744 746 747 747 749 752 753 754 758 759 757 765 774 770 768 769 767 768 768 766 760 749 744 745 746 747 747 752 750 747 750 751 751 753 757 761 762 764 766 768 769 770 770 770 771
775 774 772 771 769 767 766 764 763 761 760 760 759 758 758 758 759 760 760 760 761 762 763 763 764 761 746 735 736 734 731 731 730 731 731 732 735 736 737 739 740 741 743 745 747 747 748 751 754 755 757 761 761 760 768 773 767 766 768 767 769 769 766 763 754 746 745 748 750 750 753 749 748 754 753 751 753 758 762 763 764 767 769 770 771 770 770 771
775 773 771 770 768 767 765 764 762 761 760 759 759 758 758 758 759 759 761 761 761 758 755 756 756 750 741 735 734 732 730 730 730 730 730 732 734 736 738 738 739 741 745 748 748 748 749 752 756 759 760 760 758 758 761 762 761 762 765 767 769 768 764 760 753 747 748 751 751 752 752 748 750 756 755 751 753 757 761 763 764 767 769 771 772 770 771 771
774 772 771 769 768 766 765 763 762 760 759 759 759 758 757 757 757 758 760 760 755 747 742 745 746 741 737 735 732 731 730 729 729 729 730 731 733 737 738 739 741 743 747 750 750 750 750 755 760 759 759 756 755 759 760 761 763 763 766 767 769 770 764 756 750 746 749 752 753 754 751 746 750 757 756 752 754 758 761 763 764 766 769 771 772 770 770 770
773 771 770 768 766 765 764 762 761 759 759 759 758 758 756 755 756 756 755 752 744 741 740 738 739 737 734 732 731 731 732 731 729 729 730 731 732 737 741 742 745 748 751 752 752 751 752 759 759 753 754 755 756 763 763 763 764 763 767 768 768 770 762 752 749 748 749 750 755 759 752 749 755 759 757 754 755 757 759 761 763 764 767 770 770 770 769 769
772 770 769 767 765 764 763 761 760 758 758 758 758 758 755 752 754 753 752 749 739 736 737 735 736 735 730 730 731 732 736 736 732 729 729 731 733 738 742 744 747 751 753 753 754 756 758 758 752 750 758 760 760 764 763 762 764 765 770 769 765 765 760 753 749 750 751 747 752 760 756 755 760 760 759 757 755 756 758 760 762 763 766 768 769 769 770 770
771 769 768 766 764 763 762 760 759 757 757 757 757 757 754 752 751 750 752 752 740 731 732 732 734 733 730 730 729 731 736 737 735 730 728 730 734 737 741 744 748 751 753 754 755 760 763 756 748 753 760 759 759 764 763 763 765 767 769 766 762 761 761 756 749 750 753 751 752 755 755 758 760 759 759 758 757 757 759 761 762 764 766 767 767 768 769 771
770 768 766 764 763 762 760 759 757 756 756 755 755 753 752 751 750 750 750 750 742 730 727 727 727 728 727 725 724 729 733 733 732 729 726 729 735 738 739 742 748 751 752 752 754 758 757 751 750 755 756 754 756 761 764 764 764 766 765 762 757 754 755 755 753 752 752 755 755 751 754 759 759 761 761 757 757 757 760 762 763 765 767 767 768 768 768 769
768 767 765 763 762 760 759 758 756 756 755 753 751 750 750 749 748 749 749 751 747 733 724 724 724 722 719 721 723 725 729 729 726 724 723 725 731 736 739 740 745 750 752 754 756 756 751 749 751 752 754 755 754 757 760 760 762 763 758 754 751 748 750 752 754 755 752 755 758 756 762 766 759 757 760 759 758 758 761 763 764 766 768 768 769 769 769 769
767 766 763 762 760 758 757 756 755 756 754 751 749 748 749 748 747 747 750 759 753 734 725 725 725 720 716 721 722 722 731 729 719 719 722 722 725 730 738 741 742 746 750 752 754 752 748 748 749 749 752 755 755 755 755 756 762 762 753 749 751 750 750 750 750 754 757 759 763 762 764 770 763 753 758 763 761 761 761 762 764 765 766 767 768 769 769 768
766 764 762 761 759 757 757 756 756 756 753 749 748 748 748 746 747 745 751 766 755 731 726 727 725 720 716 719 719 723 733 727 717 719 719 721 723 726 736 743 742 743 745 749 753 749 745 746 748 748 749 754 755 752 750 753 758 756 750 750 751 748 748 750 749 753 761 761 762 762 759 767 769 758 761 766 762 761 762 761 763 762 763 765 765 767 768 767
765 763 761 760 758 758 757 756 755 753 750 748 747 748 746 745 746 745 758 772 751 725 723 723 719 716 715 718 718 719 724 720 722 724 717 718 723 725 735 740 738 740 740 746 752 747 743 743 743 743 746 751 748 744 746 748 748 747 750 753 751 749 750 752 751 754 765 764 761 764 762 768 773 763 763 767 762 760 759 758 760 760 760 762 763 765 766 766
763 761 760 758 756 756 755 755 754 750 748 746 747 746 743 744 744 748 767 770 742 722 721 719 717 718 717 721 721 718 718 718 722 723 717 720 723 724 734 736 735 739 739 743 745 742 742 740 737 739 742 742 738 740 745 742 742 746 752 755 753 756 758 757 757 755 762 767 765 768 769 770 775 768 763 766 763 761 759 757 759 759 758 759 761 762 763 765
761 759 758 756 755 755 754 753 749 747 746 746 746 744 742 744 748 763 777 762 737 726 720 718 721 720 720 726 726 721 720 720 719 720 721 723 723 723 729 732 733 738 741 743 742 739 739 738 737 736 736 735 733 742 749 744 745 747 748 750 751 756 757 760 765 761 764 773 770 773 775 770 774 775 770 768 766 765 764 757 755 755 755 756 758 760 761 763
758 757 756 754 753 753 753 751 745 744 746 745 745 742 743 749 759 775 773 747 734 730 722 722 724 720 722 728 728 724 723 723 719 721 725 726 727 728 731 734 736 742 747 745 741 741 739 738 738 732 730 733 733 740 748 746 747 746 745 750 755 761 762 764 768 766 773 780 773 776 779 770 772 777 776 772 769 769 768 760 755 756 755 754 756 757 759 761
754 753 752 751 750 750 750 747 744 745 745 744 745 743 747 759 768 771 757 739 736 733 727 729 727 723 725 726 727 725 725 726 721 722 726 729 732 732 733 736 738 747 755 751 745 745 739 735 736 732 728 730 731 739 747 747 746 746 748 754 763 773 776 776 780 780 782 780 775 779 778 770 769 771 774 776 770 768 768 764 761 761 757 755 756 757 758 760
751 749 747 746 746 745 743 743 743 745 744 745 746 745 753 767 768 760 750 742 738 731 728 730 726 726 728 726 726 724 724 726 723 722 726 728 733 734 733 734 734 740 751 755 753 750 744 739 735 731 729 727 729 738 745 747 746 745 748 753 764 779 786 790 798 798 789 778 778 782 776 770 770 768 770 773 769 766 766 764 763 761 758 756 758 760 761 763
747 745 743 741 741 739 738 740 742 743 744 745 746 750 760 767 761 752 750 745 737 731 729 729 728 727 726 726 724 722 725 726 721 723 727 730 736 738 735 736 735 735 742 754 757 754 754 749 736 730 731 728 727 731 734 737 742 747 750 750 757 766 774 784 790 786 783 781 781 780 775 774 772 769 769 768 766 765 763 763 762 760 759 758 759 762 763 766
743 741 739 737 736 735 735 737 739 742 744 744 748 756 761 761 756 751 748 741 736 734 731 729 729 729 728 727 723 720 723 724 723 725 729 732 735 736 734 734 735 735 740 751 756 756 758 751 733 729 732 728 727 730 729 732 743 755 755 750 753 752 756 777 788 783 781 782 783 781 778 779 774 769 769 766 766 765 763 763 762 761 761 760 761 764 765 766
740 737 736 735 734 734 734 734 737 741 742 744 752 759 756 750 748 747 739 734 735 735 733 731 730 732 733 729 725 722 720 722 725 727 730 732 732 733 731 729 730 731 732 742 751 754 756 747 733 731 731 727 728 729 727 730 740 754 756 750 753 750 749 770 791 794 788 781 786 790 782 778 776 771 767 766 767 766 764 765 765 763 762 760 762 763 764 765
738 736 735 735 734 733 732 732 735 739 740 744 750 754 751 744 741 740 734 732 734 733 736 739 734 733 735 732 730 727 722 724 726 727 732 734 731 731 729 726 726 726 724 730 741 746 748 744 736 733 731 729 730 729 728 731 735 746 750 746 751 755 753 761 777 792 791 783 787 792 787 783 781 776 769 767 769 768 766 765 766 766 763 762 764 763 762 763
738 736 735 735 733 730 729 730 734 737 740 745 749 750 750 744 736 736 733 732 734 733 738 743 737 733 735 734 733 728 725 730 732 730 732 734 732 729 728 726 724 725 723 724 732 740 745 745 740 736 736 733 730 731 734 737 736 738 740 741 747 754 757 762 772 782 788 791 792 792 795 791 780 775 770 767 769 768 767 766 765 766 766 767 769 767 766 766
738 737 736 735 732 728 728 730 733 737 739 745 749 747 746 742 735 734 732 732 735 736 739 741 737 736 735 734 733 728 726 732 735 735 735 734 734 728 726 726 723 724 726 723 729 739 744 748 745 738 738 737 733 735 740 741 740 740 740 743 748 752 757 763 768 770 775 790 797 791 793 786 774 772 770 766 768 767 767 769 768 769 770 769 770 770 770 771
739 737 737 736 732 729 730 732 735 737 739 745 748 744 743 740 734 732 731 731 733 734 737 739 738 738 735 733 733 729 728 731 732 736 738 734 733 729 725 723 722 725 727 725 731 738 742 749 748 740 738 741 742 743 744 742 741 743 743 747 751 756 762 762 769 774 771 779 791 791 789 780 772 774 771 766 767 766 767 771 772 772 772 770 770 771 772 772
741 738 739 738 734 733 734 735 737 739 740 746 747 743 740 737 733 732 730 730 732 730 732 735 735 736 734 734 733 729 730 732 730 733 737 735 734 732 725 721 722 724 726 728 731 735 741 746 748 745 744 746 748 748 748 744 741 742 744 749 752 757 760 760 771 782 776 775 784 785 781 777 775 779 776 770 769 767 769 772 774 776 774 773 773 771 771 772
742 742 742 739 737 736 736 737 741 742 741 742 742 739 736 733 733 733 730 730 732 730 730 731 732 732 732 733 732 729 730 733 731 731 735 736 736 733 727 723 723 721 723 731 734 735 739 741 746 752 753 752 751 747 749 749 745 743 747 756 759 756 753 753 763 774 776 783 789 781 776 776 779 783 780 775 772 769 769 771 773 776 775 775 775 773 773 774
747 746 743 739 737 737 737 739 742 742 739 739 737 735 734 732 732 732 731 732 733 732 732 732 731 731 730 731 731 731 732 732 732 733 733 734 735 733 729 726 725 722 722 730 736 737 738 741 749 757 756 751 746 744 747 750 748 746 752 761 762 758 757 756 760 766 770 779 782 777 777 776 777 782 781 776 773 770 770 772 774 777 777 776 776 776 776 777
753 751 746 742 738 737 743 748 749 745 742 741 738 735 733 732 732 732 733 736 738 737 736 734 732 732 732 732 733 735 736 734 733 735 734 734 733 731 729 727 725 724 725 728 730 732 739 746 751 758 764 763 757 753 751 749 750 752 758 764 764 763 763 762 766 767 767 775 775 769 774 778 778 782 781 777 775 772 773 775 776 778 779 778 778 778 779 779
753 751 749 747 742 743 751 758 758 753 747 745 742 740 737 735 734 734 735 738 741 742 740 736 736 736 735 736 737 738 739 736 734 737 738 737 734 731 730 730 727 728 729 729 727 729 743 756 755 755 765 769 766 763 759 755 757 759 760 762 765 767 763 759 763 760 762 779 779 766 770 780 781 781 781 781 781 778 777 778 778 781 782 782 782 781 781 781
754 755 756 753 749 752 757 760 759 756 753 750 746 745 745 741 737 735 736 740 742 743 743 742 741 738 735 738 739 740 742 740 737 741 744 743 738 735 734 732 731 732 731 731 730 732 747 764 764 759 761 763 762 762 762 759 759 760 759 757 762 768 764 759 760 759 764 778 778 772 777 781 783 788 788 788 788 785 784 783 781 783 784 784 785 783 783 784
759 765 770 764 757 759 760 760 761 759 756 754 750 750 751 748 743 738 736 740 743 743 744 746 746 742 740 742 740 741 746 745 742 746 751 750 745 740 737 734 735 735 731 731 732 734 746 763 768 767 768 769 767 765 764 762 762 764 764 760 760 764 762 757 759 767 772 771 772 779 783 781 788 799 799 796 795 792 791 789 787 786 787 786 786 785 786 787
763 769 773 769 768 770 769 766 767 763 759 756 754 755 755 751 748 745 742 741 743 744 743 746 751 752 752 749 742 745 751 748 747 753 754 753 750 743 738 734 735 737 734 734 735 735 746 761 768 768 770 771 770 768 765 767 772 775 775 771 764 761 762 761 768 780 776 765 772 784 786 789 800 806 804 802 801 797 797 796 793 791 792 791 789 789 790 791
769 771 771 769 772 776 776 774 771 766 763 762 760 760 760 757 754 752 749 745 745 746 746 750 757 757 756 751 746 752 758 752 752 759 758 756 753 748 744 740 738 739 737 738 740 740 748 762 769 769 771 774 773 771 768 768 773 777 782 784 777 771 775 777 784 793 786 780 790 792 790 801 809 807 806 805 802 801 800 799 797 797 798 797 795 796 797 798
775 776 775 772 773 776 775 775 773 769 768 769 767 765 764 763 759 756 757 755 754 753 752 755 760 758 757 754 750 757 763 758 757 760 759 758 755 753 754 752 748 745 741 742 746 744 748 763 769 767 773 782 780 776 773 770 772 776 781 788 784 777 782 787 791 797 791 793 803 795 790 805 810 805 808 806 802 802 801 801 804 804 804 802 801 804 804 803
779 780 779 776 777 778 777 776 776 774 774 777 778 773 770 768 764 760 761 763 764 765 762 760 760 759 757 756 755 759 763 762 761 761 760 760 758 756 757 756 755 752 747 748 750 746 749 764 770 767 773 784 785 781 780 778 779 780 781 787 787 780 784 792 798 801 796 795 797 789 789 804 808 806 810 808 805 805 806 807 809 808 807 806 806 807 807 806
780 780 780 778 778 782 782 779 777 776 780 787 787 781 776 773 767 762 762 764 765 767 767 764 762 759 757 756 758 761 763 761 760 759 760 760 760 759 759 759 759 757 753 752 753 754 755 760 765 766 771 782 786 785 787 783 780 783 788 795 799 796 796 799 803 808 809 802 794 788 794 807 810 809 811 811 809 810 811 813 812 811 811 810 810 811 811 810
Wind_Speed
15 15 14 14 14 14 14 13 12 12 12 12 12 12 12 11 11 11 12 12 12 12 12 13 13 14 14 14 14 16 19 19 20 16 10 11 10 7 7 5 5 14 13 6 3 2 4 4 4 5 5 2 1 0 0 0 1 3 4 2 2 3 3 5 6 5 3 3 5 6 5 4 5 2 1 4 7 4 4 5 3 4 5 6 10 23 29 27
15 15 15 15 15 14 14 13 13 13 12 12 12 12 12 11 11 11 11 12 11 12 12 12 12 13 13 13 14 16 19 19 18 15 12 9 8 6 6 7 7 11 13 9 7 4 6 3 3 5 4 2 2 2 0 1 1 2 3 2 4 5 4 5 5 4 3 2 5 7 3 3 2 3 2 3 2 3 4 4 4 6 7 9 13 22 26 27
16 15 15 15 15 15 14 13 13 13 13 13 12 12 12 12 11 11 11 11 11 11 12 11 12 12 13 13 12 15 18 14 10 9 6 4 4 8 7 11 10 9 10 6 6 5 6 5 5 5 4 2 1 2 1 1 1 2 3 2 5 5 4 4 5 7 5 2 6 8 4 6 5 3 2 5 4 1 2 2 3 5 7 10 11 17 23 25
16 15 15 15 15 15 14 13 13 13 13 13 12 12 12 12 11 11 11 11 11 10 11 11 11 11 12 12 12 15 13 7 3 4 2 3 1 7 12 14 12 9 8 5 5 5 5 6 5 5 4 2 3 2 1 1 2 1 3 4 5 4 2 6 7 8 7 1 3 6 6 8 6 1 3 8 6 1 5 6 6 9 13 13 12 15 20 20
16 16 15 15 15 15 14 13 13 13 13 13 12 12 12 12 11 11 11 11 11 10 10 10 10 10 11 11 12 12 7 3 2 3 1 2 2 9 16 16 12 9 8 7 7 7 6 4 5 5 4 2 1 2 1 3 3 1 3 5 5 4 2 6 7 7 6 0 2 4 4 6 4 3 3 7 5 4 5 7 8 12 16 16 14 14 15 15
17 17 16 16 15 14 14 13 14 13 13 13 12 12 12 11 11 11 11 11 10 10 10 9 10 10 11 11 9 6 2 1 5 4 3 2 1 10 18 16 13 10 9 7 6 7 4 4 5 3 3 2 2 2 3 3 2 2 4 3 4 4 4 5 4 4 4 1 5 4 2 3 4 5 2 4 4 6 6 6 7 11 15 16 13 11 12 13
18 17 16 16 15 15 14 13 14 13 13 12 12 12 11 11 11 11 11 11 10 10 10 9 9 9 10 9 5 2 3 5 9 5 5 3 2 12 20 17 15 13 11 8 6 5 4 5 4 3 4 2 3 3 4 1 1 3 3 4 4 4 5 6 4 3 4 5 8 2 4 5 5 5 1 1 5 6 6 2 8 11 13 13 11 10 11 12
18 18 17 16 16 15 14 14 14 13 13 12 12 12 11 11 11 11 10 10 10 9 9 8 8 8 9 7 1 3 1 7 9 5 6 5 4 13 21 18 16 15 12 10 7 5 4 6 4 3 3 1 4 3 3 2 2 3 5 4 3 3 6 7 6 6 6 7 6 2 5 9 8 3 1 4 6 4 2 6 10 12 12 11 10 11 11 10
18 18 18 17 16 15 14 14 13 13 12 12 12 12 11 11 11 11 10 10 10 9 9 8 7 6 8 5 2 2 3 5 6 5 6 5 6 14 21 18 17 15 11 11 8 6 4 4 4 4 3 2 4 2 2 2 1 5 6 4 3 5 7 5 5 7 5 5 3 2 8 10 6 3 2 6 3 2 6 9 10 13 13 10 10 10 9 8
18 18 18 18 17 16 15 14 13 13 12 12 12 11 11 11 11 11 9 10 10 9 8 7 6 5 6 4 3 1 4 4 6 4 4 5 6 14 21 18 19 17 11 9 9 7 5 5 5 4 4 2 3 2 2 4 3 5 6 4 6 6 7 2 4 6 2 4 6 7 8 7 3 2 3 5 4 6 8 10 9 12 11 10 9 7 7 7
19 19 18 18 17 16 15 14 13 12 12 12 11 11 11 11 10 10 9 9 8 8 7 5 5 4 4 2 4 3 4 5 6 3 3 5 5 12 19 18 19 18 12 8 9 13 8 7 6 4 2 1 2 1 2 5 3 4 5 3 6 5 6 3 5 6 2 3 7 9 6 2 4 1 5 4 5 6 10 11 9 11 10 10 10 7 7 6
20 19 19 19 18 17 15 14 13 12 12 11 11 11 11 10 9 9 8 7 7 7 5 3 3 2 2 2 5 8 6 5 6 6 3 4 3 7 14 16 18 18 15 9 10 17 12 6 6 4 1 2 0 0 2 4 2 2 3 2 7 7 6 5 4 4 4 3 7 8 2 3 1 4 6 3 7 6 10 11 9 10 8 9 9 7 7 7
20 20 20 19 19 18 17 14 13 12 12 11 11 10 10 10 9 8 8 7 6 5 3 2 2 2 1 1 7 8 9 10 10 10 6 5 4 4 9 13 15 15 16 12 9 14 14 7 4 2 1 2 1 2 1 1 1 1 2 1 4 7 6 6 1 2 4 3 6 7 2 6 7 8 6 4 10 9 10 11 9 8 6 8 8 8 7 8
20 20 20 20 19 19 18 15 13 12 11 11 10 9 9 9 8 8 7 6 5 4 3 1 1 1 2 6 11 9 11 12 12 12 10 8 5 3 7 11 13 14 15 13 6 5 11 9 2 2 1 3 2 3 2 5 3 1 1 1 2 1 4 8 2 3 3 3 6 7 4 6 8 9 5 7 10 12 12 12 10 7 6 8 8 8 7 7
21 20 20 20 20 19 19 17 14 12 11 10 9 9 9 8 7 7 5 5 4 2 2 1 1 1 1 8 11 7 6 8 11 14 12 10 8 4 7 13 13 14 14 12 5 3 6 7 3 0 3 2 2 2 3 4 3 2 1 2 3 1 4 9 4 5 5 3 4 6 4 5 8 8 6 8 8 10 13 13 11 7 8 9 8 7 6 6
21 20 20 20 20 20 19 19 16 12 11 10 9 9 8 6 5 4 3 3 1 2 3 1 2 2 0 6 5 2 3 5 8 11 11 13 9 4 9 12 9 11 12 9 6 4 4 4 1 1 1 1 4 4 3 4 4 4 2 2 2 1 2 6 4 4 6 1 2 5 3 2 6 6 5 7 7 8 11 13 11 8 8 8 8 7 6 6
21 21 20 20 19 19 19 19 18 13 11 10 9 8 7 4 2 1 1 1 1 3 5 2 0 1 3 6 4 3 4 4 6 7 11 15 11 6 9 8 4 7 7 5 5 4 2 2 0 0 2 2 3 4 3 3 3 4 2 0 2 2 2 3 5 5 1 2 2 3 4 4 6 3 5 7 8 8 10 13 11 8 7 6 8 7 7 7
21 21 20 20 19 19 19 19 19 15 10 9 8 8 4 1 2 1 2 5 4 3 3 1 1 0 3 5 3 4 5 5 5 5 9 13 12 9 5 3 4 4 2 1 2 2 1 0 1 2 3 4 3 5 3 3 3 2 1 1 2 3 2 3 5 4 3 1 4 4 4 8 7 2 6 7 8 9 9 11 10 8 7 6 7 8 8 7
21 21 21 21 19 19 19 18 19 15 10 7 6 5 1 3 4 3 4 5 4 2 2 3 3 2 3 4 5 7 10 8 5 5 9 11 11 9 1 3 4 4 3 2 1 1 2 1 3 2 0 1 2 5 6 7 5 5 4 3 2 3 4 5 6 5 1 1 5 6 5 7 5 3 7 7 8 9 8 8 8 7 8 6 7 8 7 8
21 21 21 21 20 19 19 18 18 16 11 7 3 2 2 2 2 1 1 2 5 5 5 5 7 4 6 6 4 6 9 5 3 4 10 11 9 7 0 3 5 5 2 3 2 1 3 3 1 4 5 6 7 6 6 5 5 4 3 2 3 3 4 6 6 6 2 4 4 5 6 6 6 6 7 7 7 8 9 8 8 8 8 7 8 9 9 8
21 21 20 21 20 19 18 18 18 16 11 7 3 1 0 1 2 3 3 4 8 9 9 9 10 9 8 6 3 4 5 3 3 1 7 11 10 7 0 2 5 2 1 3 2 2 5 3 5 8 9 8 6 5 5 4 3 3 2 2 3 3 5 7 5 6 2 3 2 2 6 4 5 5 5 7 8 9 10 10 9 10 9 8 8 10 10 7
21 21 21 21 20 20 18 18 18 16 11 6 3 1 3 1 0 3 2 4 9 10 12 12 9 10 11 10 9 2 2 2 6 5 7 10 6 5 1 4 5 2 2 2 2 4 4 2 9 9 6 5 4 4 5 4 3 3 2 2 2 3 4 7 5 5 4 2 1 3 6 3 6 3 4 4 6 5 5 7 7 9 10 9 10 10 9 7
22 22 22 21 21 20 18 18 18 14 7 4 3 3 3 4 4 6 2 3 8 6 9 9 7 8 8 8 10 6 3 3 4 5 8 11 3 4 4 4 5 3 2 3 4 1 0 5 8 5 7 6 2 3 7 4 2 3 3 3 2 4 0 3 4 5 5 2 3 5 6 3 5 1 2 3 2 1 4 6 5 7 8 7 8 8 8 9
23 23 23 22 22 19 18 18 13 6 5 7 9 6 4 8 9 6 1 1 5 3 5 8 6 6 7 5 8 11 4 4 4 4 9 12 4 3 5 4 5 3 2 5 7 5 5 6 2 6 7 7 4 3 6 5 1 2 4 5 3 5 4 4 4 5 5 4 4 5 5 4 4 1 4 4 2 1 3 6 6 6 6 4 5 6 7 8
24 24 24 23 22 20 19 14 4 3 10 12 9 5 9 13 9 2 2 1 4 5 4 4 3 5 7 5 9 10 3 3 5 5 10 13 8 4 2 3 4 3 5 5 6 3 7 6 4 6 4 5 6 4 5 7 2 4 4 8 7 5 4 3 3 5 4 4 3 5 5 3 5 3 4 3 3 1 1 4 7 6 5 5 5 6 7 7
24 24 24 23 22 22 17 6 1 7 13 9 3 6 14 16 7 4 3 4 3 5 3 1 2 4 7 6 7 6 3 3 6 7 10 12 11 6 2 1 1 3 6 5 4 2 4 2 4 5 4 4 4 4 5 7 5 1 5 8 7 5 4 1 2 4 2 1 2 4 5 1 5 4 4 4 3 4 3 3 5 5 6 6 6 6 7 7
24 25 25 23 22 20 11 3 7 10 7 4 3 10 17 14 2 6 2 5 3 3 1 1 1 4 5 5 7 6 3 3 2 5 8 12 10 4 3 4 0 3 4 4 1 2 4 2 3 4 5 5 3 4 6 8 8 3 5 6 7 6 5 4 4 4 2 2 2 5 5 4 1 4 5 4 2 4 5 5 5 5 6 6 6 6 7 8
25 26 25 22 20 16 9 9 11 6 4 6 8 14 17 10 2 5 4 3 3 2 1 1 1 4 2 3 7 5 2 2 3 2 4 12 10 3 3 7 5 6 3 5 3 5 3 3 2 4 5 2 4 5 7 10 6 5 5 7 6 5 5 4 5 3 1 1 2 6 4 4 2 5 5 4 1 4 7 7 7 6 7 7 7 7 7 8
27 27 25 23 20 15 10 9 8 6 8 9 11 16 14 5 2 4 4 0 3 1 1 1 0 2 1 3 5 4 2 1 2 2 1 7 7 2 4 6 6 6 1 5 5 6 2 4 5 6 4 4 5 5 9 10 4 4 6 6 5 5 5 5 5 3 3 3 3 6 3 3 3 5 4 4 2 4 7 7 6 7 7 7 7 7 7 7
28 27 26 23 18 13 7 9 13 11 8 9 14 16 9 2 4 5 1 2 3 1 1 1 1 0 4 4 3 5 3 2 1 2 3 2 1 4 3 3 6 5 1 3 2 5 3 2 2 4 3 5 4 2 4 5 3 5 6 6 6 6 5 4 3 4 4 2 5 6 2 4 1 4 2 1 2 4 6 7 6 6 7 8 7 7 8 7
30 28 26 21 16 10 4 7 12 6 2 10 17 12 4 3 4 4 3 4 3 2 2 2 2 2 3 4 3 3 2 2 1 3 2 1 3 3 1 1 4 4 3 4 3 4 6 4 2 3 2 4 5 4 2 2 3 5 5 5 4 4 5 4 4 4 4 2 5 5 2 4 3 3 3 4 6 6 5 7 8 6 7 7 7 7 7 7
31 28 24 20 16 13 11 9 9 7 7 14 13 5 3 2 1 2 4 4 2 1 1 1 2 2 1 2 2 3 2 1 1 3 4 3 4 3 3 4 3 3 3 3 2 4 4 3 4 5 2 4 5 4 3 5 4 5 5 5 5 2 3 2 3 1 2 4 3 4 3 2 3 4 4 5 7 7 6 7 8 8 8 6 5 6 6 6
32 28 24 20 15 17 18 15 13 13 14 10 5 4 6 3 3 5 4 2 1 1 1 1 3 3 1 0 1 4 2 3 4 3 3 3 4 4 1 2 6 5 1 3 1 2 3 5 4 3 3 2 6 5 2 1 0 4 5 4 4 3 3 1 2 1 2 4 3 4 3 1 3 3 2 4 6 7 6 6 6 6 6 3 4 5 5 5
31 26 23 18 16 19 20 16 12 10 8 2 3 4 5 3 4 4 3 4 3 3 2 1 4 4 1 0 2 3 1 3 4 5 2 3 3 3 2 1 3 5 3 3 2 3 2 3 3 3 2 1 3 5 6 5 3 3 4 5 5 4 4 3 3 2 3 2 2 4 1 2 2 2 4 5 6 5 4 4 2 2 2 6 8 8 8 8
29 24 20 16 15 15 15 16 15 10 5 3 5 4 5 4 4 2 3 4 2 3 3 3 2 2 3 3 2 0 1 2 2 5 2 3 4 4 4 4 4 4 5 3 2 2 3 4 6 4 1 2 3 2 5 6 3 1 2 5 3 4 5 3 3 4 4 2 1 1 1 2 2 3 5 4 5 5 5 5 5 8 7 8 9 8 8 7
27 22 15 8 10 13 12 12 16 15 8 5 4 2 4 4 4 3 3 2 0 1 3 5 3 2 3 3 2 3 1 0 2 2 1 2 3 3 3 4 5 6 5 4 3 1 3 4 6 4 2 2 3 3 3 3 3 1 2 3 4 4 7 6 2 1 3 4 1 1 2 3 2 2 5 5 6 5 6 5 4 6 8 9 9 7 8 7
26 19 6 6 15 17 14 10 16 18 7 6 5 5 4 4 5 4 2 0 1 2 4 3 1 1 2 1 1 2 2 2 1 1 1 2 2 3 3 1 3 7 7 5 2 3 4 2 6 1 2 1 1 3 4 2 4 5 3 5 3 2 5 5 3 3 4 3 3 2 1 3 1 1 4 5 3 3 4 4 4 4 5 7 6 4 6 6
20 11 3 11 22 17 11 9 20 15 5 4 4 4 3 3 4 4 1 1 1 2 4 2 2 1 1 1 3 2 2 1 2 1 1 2 1 2 1 0 2 5 5 5 2 2 4 0 7 2 1 4 5 6 4 5 3 4 4 3 3 3 2 2 3 2 2 2 2 2 1 2 2 3 3 1 3 4 3 3 4 5 5 6 5 4 5 5
10 4 2 16 26 14 4 15 19 9 4 5 5 3 3 4 4 3 2 1 1 2 1 3 2 1 1 1 3 2 3 2 1 2 1 1 1 1 0 1 2 1 1 7 5 1 3 2 4 3 1 2 5 4 2 3 4 4 3 3 2 2 4 2 3 3 4 4 2 1 2 2 4 4 4 5 7 6 4 3 2 3 4 4 4 4 4 5
4 1 2 19 24 6 12 16 10 4 3 5 4 3 2 3 4 4 3 2 1 1 1 3 2 1 2 2 3 2 2 3 3 1 1 1 1 2 2 1 2 1 2 5 4 1 3 3 3 4 3 2 1 0 3 4 2 3 2 2 2 2 3 2 2 2 4 4 3 2 1 4 5 3 4 5 7 7 5 2 2 1 4 4 5 6 4 5
3 2 3 19 16 9 11 6 2 2 4 2 1 3 2 1 1 4 3 2 2 3 3 4 3 3 3 1 2 2 1 1 3 3 2 2 1 1 2 2 4 2 3 5 3 1 2 3 3 2 4 2 1 3 2 4 5 5 3 2 3 3 4 4 2 1 2 4 4 5 2 5 5 3 4 6 5 6 4 3 1 2 3 4 3 5 5 5
3 3 6 18 7 9 4 3 1 1 3 2 1 3 1 1 2 2 3 1 2 3 1 2 4 4 4 3 3 3 2 1 2 3 3 2 1 2 3 2 1 3 5 4 1 2 3 4 3 1 1 1 3 4 3 1 4 6 4 3 4 3 4 5 4 3 2 2 2 4 2 4 5 4 4 5 4 4 4 5 3 2 3 4 3 4 5 6
3 1 8 19 4 8 4 3 2 3 1 3 2 2 2 1 1 2 1 2 1 1 1 1 3 2 2 2 1 1 1 2 1 1 3 2 1 2 5 6 3 2 5 2 1 1 1 4 4 1 3 4 4 4 4 4 5 6 4 2 3 2 2 5 5 3 4 3 2 3 1 4 5 5 4 4 1 3 5 5 4 2 3 4 5 5 5 5
2 3 5 18 13 4 3 3 2 3 2 4 3 1 3 1 1 1 1 1 2 1 1 2 1 1 0 1 2 2 1 1 2 2 1 2 1 2 6 8 4 2 3 2 3 2 0 2 4 3 2 3 3 3 5 5 4 3 2 2 2 3 4 3 2 3 2 4 4 5 3 5 4 5 6 7 6 6 5 5 5 3 3 4 4 5 5 5
3 0 4 12 18 11 3 1 1 2 3 4 3 3 4 2 2 2 3 2 2 2 0 2 1 1 2 3 2 3 4 2 2 2 2 2 2 3 7 9 5 4 2 1 2 4 3 2 3 5 4 4 3 3 3 1 2 1 1 3 3 4 4 2 2 4 2 3 3 4 4 4 4 6 9 10 8 7 6 6 6 5 4 4 4 4 4 4
2 3 3 5 9 8 2 1 2 1 1 2 2 3 4 2 4 3 5 4 2 2 2 2 3 2 4 5 3 3 6 4 2 3 3 3 2 2 5 5 6 6 3 4 6 4 5 3 2 5 4 4 5 4 3 2 3 1 1 3 4 2 2 3 4 2 4 4 1 3 4 2 4 8 9 10 8 6 6 6 5 5 5 5 4 4 5 5
2 2 2 3 3 4 3 5 6 4 3 2 2 3 4 3 3 3 4 3 1 2 3 4 6 4 3 3 4 3 4 5 5 4 3 3 3 3 5 2 6 9 6 3 5 3 6 3 3 5 5 2 1 0 2 4 4 2 1 3 4 4 5 6 4 1 3 6 1 5 2 5 3 7 8 8 8 6 6 6 5 5 5 5 5 6 7 7
3 1 1 1 2 3 4 5 6 8 8 5 2 3 6 5 4 3 3 2 2 3 3 4 8 7 3 1 3 3 5 4 5 4 3 4 3 4 6 3 5 9 7 3 4 3 6 2 2 4 5 6 4 6 7 6 4 4 4 4 4 6 7 6 3 1 2 5 4 3 5 5 2 6 6 6 6 5 5 5 5 5 6 6 7 8 8 8
3 1 2 2 3 2 2 3 5 8 12 8 4 4 7 8 7 4 3 2 4 5 4 4 6 8 6 4 5 4 4 3 4 3 2 3 4 3 5 4 4 7 7 4 3 3 5 1 2 5 5 6 6 6 7 7 5 5 6 6 5 8 8 6 3 2 3 5 5 7 11 6 3 4 5 5 4 3 4 6 8 8 7 7 9 8 8 8
2 1 3 3 3 3 2 2 3 6 9 8 6 6 8 8 7 6 6 5 4 6 5 5 4 5 7 8 7 5 2 2 3 2 1 2 3 3 3 2 3 6 7 4 3 3 4 2 3 5 5 4 6 4 5 5 4 4 5 5 5 8 8 6 4 3 5 5 4 8 11 6 2 3 4 5 4 6 9 10 10 8 6 8 10 9 8 8
2 2 0 2 3 4 3 2 2 3 5 6 6 6 7 8 7 4 6 7 6 4 5 3 2 4 5 9 9 5 1 2 3 2 2 1 1 2 1 1 2 5 6 4 2 3 4 3 2 5 4 2 3 2 4 5 6 4 3 4 5 5 5 3 2 2 2 4 5 6 7 3 1 2 4 6 8 11 11 10 8 7 7 9 10 8 7 7
5 1 2 3 2 5 3 2 3 2 2 3 4 5 5 7 8 4 4 5 7 7 5 3 1 2 5 8 7 5 5 5 6 5 4 4 3 2 2 3 1 1 3 3 2 2 3 4 3 3 4 2 0 3 5 5 5 2 2 2 3 3 5 4 3 4 3 2 5 4 4 4 1 2 5 8 11 11 9 7 7 7 7 9 8 8 7 7
Wind_Direction
322 321 319 316 315 315 313 313 313 313 314 312 313 314 313 316 315 319 320 319 320 320 319 320 321 324 324 324 328 321 315 318 319 316 292 272 287 277 251 255 194 185 187 194 201 108 93 89 101 121 113 105 16 80 185 50 100 60 87 121 214 188 175 185 191 189 181 269 286 325 5 18 353 15 98 47 32 45 59 29 33 17 30 83 116 135 142 150
323 321 319 315 315 316 313 313 313 313 313 312 313 313 313 315 314 316 318 318 320 319 320 321 322 325 323 325 327 319 317 321 315 294 275 277 276 258 224 195 176 184 194 213 222 151 112 99 114 113 84 84 340 25 72 290 125 101 114 161 220 191 206 200 200 219 206 249 292 310 327 345 298 182 131 100 343 357 58 26 46 63 72 92 119 135 142 152
324 322 319 315 315 316 314 313 313 312 312 312 312 312 313 314 314 315 316 317 318 319 321 321 322 324 324 326 325 320 319 323 314 277 273 326 256 224 201 182 170 174 186 193 199 164 128 141 138 110 68 74 347 46 85 343 178 157 133 200 243 201 223 246 239 247 242 276 311 302 321 337 285 198 121 143 147 23 152 185 104 117 137 130 136 141 146 156
327 324 320 316 315 315 314 313 313 312 312 312 312 313 312 312 313 315 316 317 317 320 321 321 322 324 328 325 321 317 321 335 301 256 248 353 329 183 183 181 168 166 166 127 147 158 130 126 112 91 80 79 335 28 123 267 201 168 152 197 236 175 198 250 231 248 268 272 261 286 331 323 296 108 119 137 122 274 238 220 188 168 161 149 150 150 152 157
332 327 321 317 316 315 313 313 313 311 310 311 312 311 311 312 313 314 316 317 319 321 322 323 323 327 328 322 321 316 333 35 259 273 266 316 16 170 177 174 169 170 154 119 131 139 125 106 73 64 73 94 16 41 227 243 143 148 231 209 215 163 216 249 209 233 262 232 247 288 321 296 308 47 147 144 141 222 231 228 202 171 164 159 156 152 149 149
337 331 325 319 318 316 313 313 311 308 309 310 311 309 310 310 311 314 314 317 319 320 322 324 325 327 326 323 326 325 31 30 272 297 291 262 86 172 173 172 173 170 155 142 137 132 119 79 66 77 68 80 127 143 236 252 125 199 270 262 238 195 226 256 199 209 215 253 271 258 286 294 347 347 209 170 209 239 259 241 187 162 164 157 146 138 136 139
340 335 330 325 322 317 315 313 309 306 308 310 310 308 309 309 311 314 314 317 317 320 323 323 327 326 329 332 325 11 71 266 274 293 286 258 188 175 175 177 176 171 161 149 131 132 122 96 97 129 97 87 163 202 233 266 106 190 258 292 266 197 213 252 249 226 201 239 256 268 340 301 285 297 273 216 264 281 296 221 139 144 151 141 124 119 130 134
343 340 335 332 326 321 317 313 309 308 309 309 310 307 309 310 310 313 315 318 318 323 325 322 329 328 334 345 344 7 332 257 272 275 273 253 190 177 177 177 177 175 165 160 157 153 132 121 151 141 98 176 172 195 214 75 43 201 224 264 275 217 231 254 271 265 240 238 252 302 296 265 246 224 158 254 272 306 41 107 119 128 129 128 124 129 138 131
345 342 339 336 331 325 319 315 313 310 309 309 309 307 308 310 310 312 313 315 318 320 323 324 329 330 336 352 64 343 264 266 304 285 271 250 201 181 181 178 179 180 166 173 181 169 161 161 186 167 152 184 156 192 205 125 275 218 208 238 268 277 271 274 280 269 248 236 205 191 259 266 259 165 196 261 235 105 103 107 113 122 122 126 133 141 141 126
346 345 343 340 336 330 324 320 316 311 309 307 306 308 308 310 308 308 309 312 317 316 320 327 328 333 333 345 84 323 270 324 337 294 262 235 198 180 183 184 183 182 168 173 184 180 182 187 190 161 144 126 145 188 163 152 198 198 189 233 244 269 290 271 265 266 231 232 185 181 241 279 328 152 229 264 169 124 109 105 111 121 122 129 132 133 126 115
348 347 345 344 341 335 330 324 318 312 308 305 307 308 305 306 303 305 309 311 316 317 320 328 333 336 333 23 114 214 271 351 2 335 263 226 197 183 189 191 187 182 166 162 197 203 203 192 167 111 116 152 169 209 219 187 173 177 169 262 273 301 304 239 249 263 203 234 195 180 226 318 27 173 225 227 149 126 115 111 117 123 123 131 127 123 126 125
351 350 348 347 344 339 335 328 322 315 310 308 306 304 303 301 300 304 308 312 316 318 320 331 333 309 338 24 200 230 271 323 343 338 283 205 188 197 199 197 194 190 178 170 209 211 206 187 138 85 257 169 92 278 220 200 173 181 136 273 298 357 332 259 249 234 170 215 188 157 245 315 320 234 243 183 129 113 116 120 125 127 124 128 129 136 146 160
352 352 350 350 348 344 340 332 325 317 311 309 304 304 303 299 300 303 304 306 309 311 309 319 317 286 13 290 236 258 291 287 295 302 270 211 193 203 204 201 200 202 196 191 205 209 207 199 120 76 221 134 269 241 129 65 66 295 90 126 309 7 332 277 295 130 155 194 162 140 258 276 261 259 259 168 137 126 125 134 134 128 127 132 144 154 162 183
353 352 351 351 351 349 345 338 329 319 313 311 307 305 298 295 295 296 300 298 297 299 284 264 342 82 108 259 268 295 295 274 270 269 251 220 194 172 195 198 200 206 209 207 201 205 211 212 165 29 229 166 234 266 7 8 18 338 10 48 2 21 287 289 312 115 172 220 145 146 233 254 268 272 239 171 152 140 140 149 143 133 139 144 157 164 175 195
353 352 353 352 352 351 349 345 334 323 319 313 307 302 295 293 291 292 295 286 287 279 218 158 201 134 23 279 280 299 282 260 253 250 245 221 187 158 185 188 199 205 209 213 188 130 180 187 173 109 251 238 58 37 357 350 5 36 70 317 349 146 270 301 293 170 201 296 98 148 228 262 263 257 206 168 159 145 146 154 149 142 144 150 165 166 179 200
352 352 352 352 351 351 350 349 342 331 325 319 312 309 305 302 294 288 285 270 238 172 172 148 207 165 333 287 294 313 261 254 257 254 241 219 202 186 174 172 193 204 210 215 194 193 175 147 159 160 210 327 73 81 41 13 348 2 93 224 284 167 280 316 315 211 204 298 53 165 182 256 264 251 194 159 157 147 151 157 150 144 146 152 163 165 183 201
350 350 350 351 351 350 349 350 347 336 330 327 323 321 313 303 290 297 320 155 144 181 171 153 41 156 255 278 304 302 268 257 266 259 225 212 209 184 153 151 176 190 202 208 186 204 202 147 216 355 50 43 74 91 61 11 309 321 29 116 248 228 274 313 311 291 163 120 236 183 164 231 278 253 172 156 154 151 156 162 155 148 147 147 154 170 191 198
348 347 348 349 349 349 348 350 350 341 331 331 337 338 320 238 146 102 114 130 120 135 168 217 325 128 272 278 283 284 302 305 291 261 210 202 200 186 149 123 142 127 94 70 154 159 137 15 55 64 15 15 46 88 120 220 205 200 190 36 293 291 290 266 278 296 35 51 223 173 186 246 285 254 173 162 155 158 163 164 160 152 148 148 159 179 194 199
346 346 346 346 347 347 346 347 350 345 333 331 339 351 34 140 125 116 120 126 119 127 239 237 179 181 272 265 268 289 307 307 288 242 195 186 187 191 185 50 104 96 75 70 287 226 121 52 57 101 300 300 195 149 174 203 161 149 170 160 208 267 279 252 258 265 149 136 212 190 196 230 249 205 181 172 160 160 158 159 163 156 148 153 169 187 197 207
346 345 344 344 344 345 344 342 345 342 336 332 320 351 82 93 55 39 120 186 206 223 260 224 185 229 277 272 289 322 323 308 265 219 188 181 162 154 93 27 52 48 90 147 219 285 97 108 197 202 207 219 215 185 165 166 126 112 122 164 212 223 268 268 268 278 183 143 224 198 175 215 223 201 187 169 157 162 158 159 169 160 151 161 180 194 201 211
345 345 342 341 340 341 343 339 337 336 333 325 297 293 202 131 21 311 267 243 235 228 249 233 201 230 253 257 306 11 1 323 308 314 182 179 143 127 268 35 69 28 276 170 165 5 62 116 231 222 205 206 202 175 145 132 99 78 126 217 263 219 245 263 263 300 288 152 288 127 142 240 257 216 199 167 168 182 172 167 173 164 154 163 185 197 202 209
345 344 341 339 337 338 341 337 332 326 320 316 297 256 261 242 351 281 258 285 264 220 228 240 222 245 252 256 271 290 45 308 314 322 171 162 138 152 188 75 119 206 298 96 79 1 29 233 245 228 183 155 144 136 129 129 110 88 123 165 266 243 270 288 279 314 335 120 354 102 123 300 294 239 223 194 188 189 157 158 169 168 162 173 188 196 203 204
345 342 340 338 335 336 339 336 326 317 312 303 264 232 267 308 309 292 279 303 284 221 213 230 218 239 247 257 244 193 151 203 262 293 174 153 151 172 140 105 146 155 65 126 153 129 115 255 251 199 144 138 144 126 114 103 104 128 142 142 250 258 277 299 288 323 347 68 119 120 104 349 329 329 264 270 243 105 113 134 145 172 181 188 191 189 201 203
343 341 339 336 334 334 337 333 323 324 340 303 276 266 309 328 319 296 236 245 285 271 222 208 193 215 227 242 195 168 172 196 191 256 177 153 134 147 153 147 135 136 195 178 154 162 218 241 189 123 140 157 168 159 132 133 256 253 187 165 222 257 207 215 289 334 344 23 77 86 55 353 353 2 246 284 323 98 125 143 149 175 183 184 192 188 198 202
342 340 338 336 334 332 335 333 316 3 336 301 278 307 344 341 332 258 166 16 292 289 277 201 189 217 207 184 167 163 160 204 207 215 175 160 150 140 182 165 131 184 206 158 132 178 245 239 150 133 165 174 171 195 178 164 188 306 238 198 202 214 206 232 333 16 35 10 10 63 60 320 325 308 239 284 303 262 121 163 168 166 169 176 192 193 193 198
341 339 337 336 334 333 337 335 250 339 325 295 271 335 337 340 339 174 136 31 304 283 306 184 194 199 184 164 164 148 114 239 228 183 165 170 166 139 137 176 113 196 181 146 135 196 251 239 140 149 156 153 167 231 222 164 127 322 245 201 183 162 142 146 29 52 89 280 324 68 107 220 320 318 276 314 296 274 305 226 194 175 178 184 190 192 189 195
340 338 336 334 334 337 340 299 301 319 306 279 314 327 332 341 341 167 93 26 314 273 218 219 234 180 182 178 166 141 140 252 207 152 164 174 171 113 138 196 120 185 174 123 128 231 198 146 79 108 109 119 152 243 227 149 123 232 229 161 145 149 156 148 94 81 176 217 334 15 91 118 328 280 290 340 343 292 292 257 234 205 193 185 185 192 192 195
338 337 334 331 332 333 312 288 297 291 256 284 312 323 333 342 166 146 70 31 299 289 170 263 222 170 179 171 172 170 192 172 121 208 196 169 172 89 171 213 183 182 181 120 179 263 189 167 174 127 95 130 195 217 192 150 141 236 198 138 136 144 144 122 97 91 25 100 311 325 32 99 250 276 318 12 60 284 273 249 242 225 209 196 185 185 192 198
336 335 332 328 328 324 307 278 266 269 286 303 323 327 332 346 124 89 69 93 275 316 94 30 174 173 91 136 200 244 295 65 136 249 66 157 183 99 166 209 156 159 191 116 184 255 234 204 194 141 124 213 220 211 180 161 167 198 139 100 68 75 78 75 91 106 46 63 228 285 353 103 259 289 336 25 31 277 273 264 249 227 217 206 187 179 185 192
335 332 328 326 320 319 314 271 270 281 291 316 330 328 334 48 77 61 65 246 270 283 107 91 261 116 95 124 219 262 266 310 32 86 58 137 173 46 131 162 103 131 310 34 192 244 282 280 188 149 176 200 177 141 170 159 135 133 106 65 44 33 32 48 55 82 68 3 251 266 311 120 208 286 271 353 299 265 270 283 276 238 218 206 186 178 178 180
332 328 325 319 308 304 297 276 292 298 295 334 333 332 356 56 70 91 209 248 264 300 8 352 317 37 98 151 220 270 257 291 14 96 109 125 83 59 96 116 72 72 8 351 308 298 334 338 251 249 215 160 112 79 55 31 78 106 85 73 75 8 10 30 359 45 90 268 259 271 287 134 158 255 242 262 279 274 257 264 276 263 239 220 185 174 173 169
329 326 320 310 296 274 249 257 287 287 293 321 333 358 71 77 97 167 239 284 298 298 4 289 305 355 308 189 203 230 188 227 256 138 147 147 149 166 173 179 161 62 354 276 289 336 322 262 271 307 268 155 115 83 35 7 28 80 89 89 93 20 15 37 318 21 150 241 261 309 319 170 209 228 215 250 277 283 263 253 263 262 259 250 190 167 159 154
328 325 317 308 289 261 255 265 271 270 284 306 344 50 79 108 216 221 239 288 267 288 358 239 303 313 262 43 225 216 176 207 223 181 150 127 156 202 246 175 156 120 150 213 178 347 305 301 317 325 286 184 131 131 152 261 83 126 137 126 117 102 79 169 268 323 233 246 291 324 324 245 267 268 239 266 280 282 285 276 262 248 239 209 121 104 91 83
329 325 318 306 283 265 263 262 251 247 263 284 70 71 99 151 232 226 229 251 255 316 349 281 310 315 294 5 247 207 171 242 198 156 148 108 142 219 262 243 161 120 114 143 156 176 183 307 283 201 248 264 152 160 163 156 146 164 157 129 140 153 140 188 213 179 206 239 319 315 307 163 195 280 295 291 294 304 324 323 346 71 98 103 91 79 78 72
330 327 320 306 287 280 271 251 232 210 191 111 72 92 154 198 238 209 217 241 266 324 318 309 344 352 332 315 293 258 155 249 155 123 139 143 167 201 191 206 198 129 117 155 211 170 151 240 259 256 263 158 169 182 138 115 95 232 136 109 152 179 140 136 173 167 170 141 30 280 225 202 208 283 307 322 329 353 19 6 53 82 83 87 86 83 85 81
332 332 330 318 315 322 309 260 218 193 172 110 95 170 196 213 212 187 209 212 100 324 330 345 35 62 319 307 339 2 51 116 78 97 152 182 192 204 192 210 192 159 148 160 202 159 131 254 281 320 349 159 176 179 142 135 154 167 127 158 214 170 119 111 132 38 81 124 192 257 251 299 346 313 321 359 358 8 33 13 36 90 103 103 102 104 105 103
334 338 341 341 336 326 309 268 195 180 156 108 151 204 214 215 194 185 223 15 63 72 68 20 332 221 279 294 303 321 21 18 6 91 210 232 225 208 206 239 176 186 183 151 200 202 143 260 292 1 62 324 307 96 71 59 127 127 175 198 190 96 95 104 109 21 50 143 249 336 269 291 37 177 311 357 356 349 18 358 353 31 80 95 94 102 112 118
329 336 327 342 343 329 296 220 174 163 118 118 180 222 209 212 201 191 215 30 16 50 82 160 250 254 223 221 263 273 79 35 322 17 181 241 252 192 193 244 163 204 202 146 168 245 121 240 293 286 150 313 355 66 59 349 43 119 169 164 115 121 136 96 120 130 111 164 267 339 318 251 192 209 272 245 224 253 306 340 10 30 50 70 58 42 64 72
326 343 1 351 349 340 220 170 160 137 86 157 193 223 202 222 247 229 214 59 102 86 107 215 231 316 294 205 225 240 94 139 282 11 97 190 238 204 128 203 168 306 248 153 163 240 102 135 274 283 217 330 5 63 144 304 7 49 73 48 41 130 152 152 140 149 145 156 204 316 359 264 226 212 204 215 232 236 253 309 13 69 80 91 93 67 63 77
347 56 19 357 357 21 146 148 141 107 132 171 192 207 214 233 263 268 238 211 170 148 204 220 193 259 276 263 224 221 95 141 144 81 247 219 201 230 282 219 159 13 36 122 132 70 78 128 220 290 337 35 39 37 191 188 128 70 56 36 20 66 119 144 88 90 128 139 169 167 249 266 255 219 207 238 246 224 211 248 308 66 102 106 117 114 107 103
15 76 353 359 16 117 133 123 116 123 150 141 170 204 249 220 240 304 276 214 197 224 215 192 196 213 214 272 270 225 126 161 159 137 198 245 160 202 271 211 166 164 93 81 83 125 118 141 177 299 5 60 239 289 271 212 169 139 132 147 143 124 122 124 109 300 110 121 162 159 189 262 268 252 254 269 253 216 179 139 335 345 73 85 98 122 119 103
33 90 342 358 39 147 77 50 199 62 125 150 191 205 257 182 181 286 285 269 207 227 257 193 221 230 197 213 248 206 136 181 192 145 171 211 160 196 290 310 170 133 109 107 173 189 138 113 103 55 12 226 263 299 329 313 114 107 105 120 130 121 110 124 171 219 107 92 154 123 128 255 269 287 287 283 247 190 128 117 118 31 54 66 65 82 85 84
45 186 341 4 55 178 42 53 243 351 140 232 273 219 231 185 196 247 265 3 304 221 359 245 221 227 198 200 218 161 88 143 150 120 174 161 126 258 313 323 309 59 82 125 214 4 93 93 82 31 315 312 306 331 351 6 64 74 52 54 89 65 86 137 171 172 133 151 148 90 116 252 288 325 332 326 333 98 82 86 100 77 56 74 78 71 73 80
13 230 325 16 44 109 57 57 300 329 295 309 347 321 291 241 197 253 163 35 356 26 355 281 278 7 28 66 90 86 28 133 102 29 150 127 39 318 355 348 325 40 58 186 177 143 34 77 95 98 32 348 339 344 341 347 30 67 43 10 51 71 72 108 130 79 107 186 154 127 192 249 289 340 5 10 27 52 55 63 74 55 39 62 69 63 69 80
8 288 279 13 40 55 67 100 292 293 304 341 6 346 340 357 340 354 108 95 25 46 55 284 319 4 42 45 64 57 34 70 112 40 27 24 340 346 8 3 10 47 40 30 109 114 106 73 100 127 146 171 182 215 245 264 17 43 59 28 47 93 103 142 125 87 131 194 142 139 195 243 305 350 6 7 16 25 19 31 49 40 25 32 47 55 54 60
55 37 314 336 27 46 56 348 357 324 322 13 19 2 4 337 317 5 79 77 34 47 43 350 344 17 43 44 60 46 23 24 71 71 36 350 320 330 352 12 38 31 25 44 44 78 105 67 63 112 134 179 189 218 235 149 92 60 77 42 34 57 98 102 93 111 176 164 152 219 186 153 348 349 355 354 0 9 3 9 26 32 24 17 22 35 37 39
82 52 355 319 340 14 24 11 12 9 354 22 49 1 352 335 323 4 42 53 62 72 59 26 20 30 16 23 70 52 1 11 38 47 16 324 288 300 323 36 50 7 349 23 15 57 102 49 14 70 58 18 189 205 30 77 86 74 46 22 27 33 50 77 88 167 146 124 212 263 152 105 10 344 345 339 342 355 5 7 14 23 20 18 22 27 31 30
55 124 282 340 353 4 14 354 350 6 15 23 52 9 5 21 37 12 349 13 41 39 69 38 18 20 353 329 107 61 357 19 32 9 347 340 329 333 338 8 43 13 12 22 354 69 108 63 4 65 38 16 32 48 55 59 52 47 30 4 24 47 52 75 91 301 120 136 198 212 91 82 343 338 341 329 330 349 6 11 23 32 25 29 42 41 33 28
46 67 309 7 68 47 9 310 319 8 22 15 8 18 16 23 32 18 344 2 16 11 59 73 11 6 16 38 102 78 11 49 54 360 347 350 338 360 11 350 350 10 29 39 5 64 103 96 112 100 51 5 4 31 59 63 47 36 19 5 43 70 68 74 73 10 75 117 149 118 90 66 329 317 333 332 336 9 38 36 38 38 32 43 55 50 41 36
47 70 319 16 57 29 8 333 346 27 23 7 8 14 10 14 24 29 26 36 27 354 22 74 38 6 32 46 71 87 62 113 100 11 13 26 351 15 43 357 326 349 10 33 11 31 83 141 162 107 76 337 327 9 56 73 79 64 24 10 48 76 69 51 32 38 68 89 117 105 89 68 1 351 1 2 23 52 53 46 44 41 37 56 64 55 49 48
356 234 333 73 41 360 356 350 15 58 27 8 9 0 359 6 5 24 46 42 51 29 2 18 2 356 34 46 54 60 335 226 202 251 239 175 335 356 4 318 340 346 353 15 358 1 69 127 145 87 102 254 301 67 99 94 89 84 41 10 25 68 89 70 22 31 89 138 142 107 99 118 275 2 30 43 54 58 52 44 46 46 44 59 67 60 54 52
356 285 40 90 77 4 356 357 12 61 58 1 344 335 348 3 2 27 67 22 26 39 9 326 344 33 37 32 28 2 311 263 236 243 224 208 241 252 259 285 298 323 329 358 19 14 78 134 147 107 127 179 80 116 136 112 98 119 278 333 21 92 123 107 50 14 18 126 148 142 154 180 223 43 71 63 59 60 54 43 43 45 46 55 58 55 47 35